Theta_e
322 325 325 327 329 326 324 322 322 321 321 321 321 322 322 322 324 325 313 313 317 318 320 322 323 325 326 329 331 332 332 332 333 333 334 334 336 334 335 334 334 334 336 338 338 339 338 337 336
323 323 325 329 328 328 325 322 321 320 320 319 319 319 320 322 318 315 313 311 314 315 318 318 319 322 323 324 324 326 327 329 329 328 327 328 329 329 331 328 331 332 334 335 336 337 337 336 336
321 321 328 327 326 323 323 322 321 320 318 319 319 317 319 320 315 315 309 310 313 314 315 315 316 317 319 320 319 318 319 319 320 320 322 323 321 320 321 322 324 324 325 326 327 329 331 333 333
322 322 322 322 322 323 321 321 321 319 317 317 318 319 314 312 314 312 307 309 311 311 312 312 313 314 315 316 315 315 314 314 313 313 315 314 309 307 307 309 313 315 317 319 322 325 326 325 327
320 324 324 322 321 321 320 320 320 320 319 318 317 319 317 310 308 306 304 306 308 308 308 309 307 310 311 311 311 310 310 309 308 306 306 307 305 303 301 306 307 307 307 309 312 313 316 320 322
323 322 322 322 321 321 320 319 319 320 319 318 317 318 318 310 307 305 303 303 303 304 305 304 302 303 305 303 303 304 304 303 301 299 298 298 297 297 297 297 297 297 298 298 298 299 302 304 311
324 324 323 323 321 321 320 318 319 320 319 318 317 318 315 309 307 305 303 302 301 300 300 301 301 298 297 298 298 299 297 296 296 296 296 296 296 296 296 296 296 296 297 297 297 297 297 297 298
321 322 323 322 322 322 319 318 318 319 320 314 315 318 319 312 307 304 303 302 300 300 300 300 299 299 301 297 295 295 295 295 295 295 295 296 297 296 295 294 294 295 295 297 299 298 296 296 297
320 322 324 323 321 322 318 318 315 314 317 315 315 315 311 310 305 303 302 302 301 299 299 299 299 299 299 298 294 295 295 295 295 297 295 298 298 296 297 295 294 294 294 295 296 300 301 299 301
322 324 323 321 320 319 318 317 318 315 316 317 315 313 307 307 304 304 304 303 301 300 299 298 298 298 298 296 296 296 296 296 296 296 296 296 296 295 295 295 294 294 294 297 298 299 300 299 300
321 322 321 319 318 317 318 317 317 316 318 318 318 317 309 307 305 305 305 304 302 301 300 298 298 298 298 296 298 298 298 298 296 294 294 295 295 295 295 295 295 294 295 295 295 297 298 297 299
320 320 319 319 317 316 317 317 317 316 319 317 319 318 313 309 307 306 306 305 304 302 300 298 297 297 298 298 298 298 298 297 296 294 293 294 294 294 294 294 294 294 294 293 294 294 294 296 297
319 320 318 317 316 316 315 316 317 318 318 317 314 313 314 310 309 307 307 306 305 302 300 298 297 297 297 297 297 297 296 296 295 294 293 293 294 293 293 293 293 293 292 292 292 293 293 293 295
319 318 318 317 317 316 315 317 315 318 317 317 316 313 312 312 310 309 307 307 306 302 300 298 297 297 296 296 296 296 295 294 294 293 292 291 292 291 291 292 292 292 291 290 291 291 292 293 293
316 317 318 318 317 316 315 316 317 317 315 316 316 314 313 312 310 309 308 307 305 302 300 298 296 296 296 296 296 295 295 294 294 292 291 291 290 290 290 291 291 290 289 290 290 291 291 291 292
317 318 319 319 317 315 315 318 318 318 316 315 315 315 313 312 311 310 308 306 305 302 300 298 296 295 295 295 295 294 293 293 292 292 291 290 289 289 289 289 290 289 289 289 290 290 290 291 291
320 320 320 320 316 316 316 318 318 317 315 315 316 316 315 313 311 309 308 306 304 302 299 297 295 295 295 294 294 293 293 292 292 291 290 289 289 288 288 288 288 288 288 288 289 289 289 289 289
318 319 318 318 318 316 317 316 317 317 317 316 316 315 315 316 313 309 308 306 303 301 299 297 295 294 294 293 293 292 292 292 291 291 290 289 288 288 287 287 287 287 288 288 288 288 288 289 289
318 318 317 317 316 316 317 317 317 318 317 317 317 316 316 315 315 311 307 305 302 300 299 296 295 294 294 293 292 292 292 292 291 290 289 288 288 287 286 287 287 287 287 287 287 287 288 288 288
318 318 317 318 317 314 316 317 317 317 317 316 316 315 315 315 315 312 308 305 301 299 297 296 295 295 293 293 293 293 293 292 291 290 289 288 287 286 286 285 286 286 286 286 287 287 287 287 288
316 317 317 317 317 312 313 315 316 315 315 314 314 314 314 314 315 312 308 304 301 298 297 296 295 294 293 293 293 291 291 290 289 289 289 288 287 286 285 285 285 285 285 286 286 286 286 286 287
317 316 317 318 318 318 313 317 317 316 316 315 315 315 315 315 314 312 308 304 301 298 297 295 295 294 293 292 292 291 290 291 291 291 289 288 286 285 285 284 284 284 285 285 286 285 285 285 286
316 311 314 316 317 317 316 317 316 314 314 313 314 314 315 315 312 309 307 304 301 298 297 295 294 293 293 292 291 291 291 291 291 289 288 287 286 285 284 284 284 284 284 284 285 284 285 285 285
310 312 313 312 314 318 316 317 316 316 313 313 312 312 314 312 310 308 306 303 301 299 297 295 294 293 293 292 291 290 290 291 290 289 288 287 286 285 284 283 283 283 283 283 284 283 283 283 284
311 315 318 323 322 321 317 317 316 315 313 313 313 313 313 311 309 308 306 303 301 299 296 295 294 293 292 291 291 290 290 290 289 288 287 287 286 285 284 283 283 282 282 282 282 282 282 282 282
312 316 321 325 321 320 316 316 315 315 314 313 312 313 311 309 309 308 306 304 301 298 296 295 294 294 292 291 290 290 289 289 288 287 286 285 284 284 283 282 281 281 281 281 281 281 281 281 281
313 314 315 320 321 321 315 315 316 314 313 312 312 310 311 309 308 307 306 303 301 298 296 295 294 294 292 291 290 289 288 287 286 285 284 283 283 282 281 280 280 280 280 280 280 280 280 280 280
310 310 315 315 322 320 317 320 320 318 315 313 311 311 311 312 310 307 305 303 301 299 296 295 294 294 293 291 290 289 287 286 285 284 283 282 281 281 280 279 279 279 279 279 279 279 279 279 279
307 310 309 310 316 321 321 318 314 314 315 314 313 311 311 313 310 308 305 302 300 299 296 295 294 293 292 291 289 288 286 285 284 282 281 281 280 279 279 279 278 278 278 278 278 278 278 277 277
309 313 313 314 315 313 315 316 311 313 312 313 312 311 312 311 311 310 307 303 300 298 297 295 294 293 292 290 289 287 285 283 282 281 280 280 279 278 278 278 277 277 277 277 276 276 276 276 276
Wind_Speed
1 2 3 4 5 5 4 4 2 7 5 4 3 4 5 4 2 2 7 6 7 6 6 7 9 8 6 4 2 1 3 5 6 8 10 11 11 9 10 10 8 7 9 10 10 9 8 9 9
3 3 5 3 6 8 2 5 7 7 6 7 4 3 4 2 4 8 9 7 7 7 7 6 9 10 10 10 8 5 2 2 2 5 6 11 11 11 12 9 11 12 14 13 13 14 13 10 10
2 5 4 4 6 8 5 5 6 8 8 8 5 3 3 2 4 11 8 10 9 7 6 7 8 9 10 10 10 10 10 8 7 7 10 11 11 7 8 9 9 9 10 10 11 11 12 12 13
3 5 4 6 11 3 5 3 7 10 4 3 2 4 3 3 7 7 11 11 10 9 7 8 9 9 10 10 10 10 10 11 10 9 10 8 7 8 9 10 10 11 12 12 13 14 17 17 13
4 4 7 8 10 3 2 2 7 11 7 8 6 1 1 6 7 13 13 12 11 10 9 7 9 8 8 8 8 8 9 9 8 7 8 7 7 8 8 10 12 12 13 15 16 16 16 15 15
4 4 6 8 4 1 3 4 8 9 6 6 6 6 1 10 14 15 13 12 11 11 10 7 7 8 7 6 5 6 6 7 7 6 7 7 8 8 9 10 11 12 13 14 15 17 16 19 20
7 6 10 9 9 5 6 6 10 10 9 9 1 5 4 11 15 16 14 13 11 10 10 9 7 6 6 7 6 5 5 5 5 5 6 6 6 7 8 8 9 10 11 12 13 14 15 17 19
4 3 7 6 6 6 4 8 3 10 11 4 5 6 7 14 19 17 15 13 12 10 9 8 7 6 5 3 5 5 5 5 6 8 7 9 11 11 11 13 13 14 14 13 15 14 15 15 15
2 5 7 6 4 2 4 9 3 5 7 5 8 7 5 16 21 19 17 16 15 13 11 10 10 8 7 6 4 4 4 5 6 7 10 8 6 8 10 14 15 15 15 15 16 16 17 16 13
6 5 5 1 4 4 6 10 8 5 11 14 13 11 7 21 22 23 23 22 21 19 16 13 11 9 8 6 5 4 3 3 3 4 5 6 7 10 11 12 15 15 16 15 17 17 17 16 16
3 5 2 6 7 5 8 9 8 10 14 14 16 16 16 22 23 24 25 24 25 21 18 17 14 12 11 9 7 5 4 3 1 3 5 6 6 8 10 12 13 15 15 15 16 16 15 18 17
5 12 8 1 3 4 8 6 8 17 19 2 10 12 19 20 22 27 27 27 25 24 21 18 16 14 12 9 7 6 5 3 2 1 3 5 6 8 10 11 12 13 14 14 14 15 16 16 17
10 11 6 8 5 9 6 13 12 18 19 18 7 5 16 18 25 27 27 25 25 26 24 21 19 17 14 13 10 8 7 5 4 1 1 3 5 5 6 7 8 9 11 12 14 14 16 16 15
6 9 11 7 11 9 9 13 4 12 14 19 17 15 16 19 24 25 28 29 29 27 26 22 20 18 15 13 11 9 8 6 4 3 1 2 2 3 5 6 8 9 11 13 13 14 14 14 15
5 9 12 14 12 6 7 11 18 21 7 11 15 16 17 20 24 29 30 30 30 28 26 25 21 19 17 15 14 11 10 8 6 5 3 2 2 4 6 6 7 9 12 12 12 13 13 14 14
6 6 10 1 10 5 7 18 11 8 9 13 16 16 17 20 25 29 29 29 29 28 29 25 22 21 19 16 15 12 11 9 8 6 3 2 2 4 5 6 7 10 10 10 11 13 15 16 17
10 12 16 12 13 4 13 15 4 4 7 14 16 17 17 19 22 28 28 29 30 30 28 27 24 22 21 18 15 13 12 10 7 6 4 4 3 5 5 6 8 10 10 10 12 14 15 18 19
16 17 15 16 10 13 14 21 23 17 16 20 21 21 20 20 21 25 27 28 29 29 29 28 27 24 22 18 15 13 11 11 9 8 6 6 4 5 5 6 7 8 9 10 11 14 15 15 18
22 21 22 25 7 11 19 22 25 23 20 22 22 22 21 20 18 23 26 28 28 29 30 30 29 26 24 21 18 14 14 12 10 9 9 7 5 5 5 6 7 8 9 11 12 12 14 16 17
20 22 26 23 7 7 17 22 22 22 24 24 23 21 20 16 15 15 24 28 29 30 30 30 29 28 26 22 20 11 13 13 10 11 10 7 6 4 6 8 9 9 11 13 12 11 13 13 8
19 21 22 21 8 12 13 16 16 13 18 19 19 23 18 17 14 15 18 28 29 31 34 34 33 32 30 25 21 14 12 11 12 12 9 7 6 8 10 11 11 10 11 14 12 11 11 13 12
20 16 19 19 11 11 3 14 12 15 17 14 17 21 16 12 11 12 16 25 31 32 32 34 34 33 31 29 24 23 20 14 14 11 9 7 8 10 11 11 11 12 13 15 12 10 11 12 13
12 3 4 9 13 17 14 13 15 7 9 13 17 21 17 5 8 13 16 24 27 30 33 34 33 33 31 31 27 26 21 17 13 11 9 10 10 11 11 11 13 13 13 14 13 13 13 13 14
5 3 5 5 7 11 17 18 8 8 5 5 11 17 4 5 8 12 17 21 23 27 30 31 33 31 31 31 31 27 23 19 15 13 11 10 9 9 10 12 12 12 14 14 13 13 15 16 16
8 6 6 8 7 17 14 14 16 9 13 14 21 21 3 7 10 13 16 16 22 25 29 30 34 35 34 33 31 28 25 22 19 16 13 12 10 10 11 11 12 12 13 15 14 15 17 18 20
14 11 6 13 15 25 3 14 11 13 15 14 16 9 3 8 9 12 14 16 22 27 30 32 35 36 36 34 32 29 26 23 20 18 15 12 12 12 11 12 13 14 15 16 15 17 18 19 21
8 7 3 8 1 9 14 21 15 7 11 17 7 5 9 12 13 14 14 17 21 26 32 36 35 35 36 35 33 31 28 25 22 19 16 15 14 14 14 13 13 15 16 17 17 19 20 21 22
6 2 5 4 7 17 27 22 14 15 17 11 8 9 11 8 10 11 12 15 21 26 29 32 33 35 35 34 33 32 29 27 23 20 20 17 14 14 13 13 15 15 17 17 17 20 20 22 23
5 6 6 3 7 11 19 12 7 8 5 8 8 7 7 3 7 10 11 17 22 23 26 28 31 32 34 35 33 31 30 27 23 21 19 17 15 14 14 15 15 16 17 17 18 20 22 23 25
8 21 18 9 13 8 13 27 7 1 3 4 6 6 6 7 8 10 12 16 20 24 25 27 28 31 35 35 33 31 29 29 25 23 18 16 15 15 15 14 15 16 16 16 17 20 21 24 25
Wind_Direction
184 267 275 253 245 235 237 195 115 164 168 112 241 175 264 357 297 354 134 124 118 102 86 56 66 68 84 100 122 81 48 50 68 58 55 53 45 37 27 14 10 358 9 8 1 354 345 330 329
250 258 244 278 255 247 152 137 184 172 94 149 153 221 255 218 86 121 146 139 126 107 96 77 76 76 76 75 78 89 81 73 57 50 35 43 41 34 35 22 22 18 17 11 4 359 360 337 332
244 252 263 243 259 269 348 166 165 105 137 170 174 260 329 63 119 145 128 144 132 117 101 89 89 82 84 83 80 75 72 74 67 55 55 54 46 21 12 13 0 349 337 339 353 355 350 346 341
258 205 232 250 260 280 312 181 134 147 151 208 265 208 139 63 150 156 151 148 144 129 121 115 105 96 96 96 90 85 80 76 75 71 69 56 33 31 22 13 3 357 349 340 335 327 311 313 318
236 260 255 249 275 279 242 282 163 179 160 174 192 199 208 161 140 149 153 156 154 145 135 123 133 118 107 103 98 92 85 81 77 69 69 58 44 34 28 21 15 6 356 353 353 348 343 339 320
240 277 253 260 285 194 242 196 194 198 174 129 202 247 213 150 166 165 161 160 161 158 153 150 163 153 141 133 123 102 91 83 72 69 63 53 42 32 22 8 3 356 352 346 336 330 331 321 316
265 261 276 296 277 253 227 184 203 209 196 206 23 236 89 176 179 171 169 167 165 165 165 165 158 173 173 166 150 133 119 108 93 82 81 75 58 46 40 27 20 11 4 356 346 339 328 319 315
269 267 272 256 294 271 159 190 274 225 232 98 183 232 223 185 177 175 177 179 177 177 177 174 174 163 153 145 143 136 116 91 84 73 67 62 41 40 33 32 25 19 10 5 359 349 341 335 331
247 249 264 271 264 348 149 209 185 353 236 201 198 261 79 157 168 178 185 191 192 193 189 186 185 180 169 166 153 121 101 85 65 49 56 48 44 35 26 17 13 12 10 6 360 353 349 353 348
239 252 277 311 262 246 190 227 197 222 220 229 231 220 165 164 177 186 192 197 200 199 197 193 188 186 179 175 179 171 136 122 97 73 55 49 34 20 21 8 7 5 4 6 358 355 355 352 344
201 251 354 245 246 249 240 224 212 223 247 226 233 224 186 186 192 200 203 205 203 201 197 195 189 188 185 188 186 178 179 171 120 65 57 39 27 19 11 6 2 2 356 357 354 353 351 345 339
257 247 247 259 221 235 235 261 228 226 236 340 250 245 178 198 204 207 209 207 204 202 199 195 191 187 186 190 183 183 184 173 154 91 58 41 25 12 12 5 1 359 352 350 350 345 342 340 335
246 273 250 248 225 238 256 242 249 256 243 253 214 216 197 206 214 215 215 213 208 204 201 196 190 188 189 184 186 184 190 184 186 171 30 52 28 17 9 358 356 353 346 344 343 341 338 332 330
354 285 264 252 242 232 233 257 243 258 245 242 231 225 224 216 216 216 213 212 208 204 203 197 194 189 187 186 187 186 184 192 180 184 219 8 35 11 1 353 354 349 343 341 335 328 327 323 322
279 279 269 243 236 240 213 250 236 251 222 236 234 230 229 225 219 219 214 213 207 204 201 199 194 190 188 187 186 185 188 184 187 205 229 281 343 358 1 353 352 342 336 333 326 322 321 321 318
257 252 267 295 184 193 199 268 248 251 192 233 240 233 234 228 223 221 216 212 207 202 201 197 194 190 188 189 188 189 192 187 196 203 218 256 332 343 355 345 338 325 326 323 324 324 325 321 320
212 264 266 247 191 177 208 267 273 137 232 259 256 252 239 236 230 225 218 210 205 202 199 195 194 192 189 188 188 190 195 193 197 204 203 235 281 312 329 324 317 317 319 326 324 322 324 318 319
271 266 266 263 198 214 232 251 270 266 263 262 263 265 261 244 231 224 221 212 204 201 199 197 194 192 190 188 188 194 198 200 203 203 205 234 256 283 304 308 304 308 315 315 307 310 310 310 316
275 282 278 273 266 213 241 253 264 278 275 273 270 272 259 254 250 210 213 210 200 199 198 197 195 193 188 187 185 200 204 204 206 208 217 224 231 273 301 302 296 295 289 284 288 296 307 316 321
263 263 269 275 273 208 267 267 267 271 268 266 274 272 266 267 239 198 205 202 197 195 197 197 199 196 195 194 197 198 200 207 205 209 216 220 234 264 273 272 270 271 275 278 282 290 301 303 316
249 252 261 263 273 220 273 272 258 248 252 260 267 263 266 260 245 195 196 194 196 199 197 197 198 196 195 193 191 191 185 195 204 215 220 218 220 245 257 261 267 276 275 275 280 286 292 300 309
262 268 253 266 273 265 157 285 273 286 267 240 265 276 270 249 228 195 189 195 198 201 200 199 200 197 195 193 191 195 198 196 206 191 187 206 235 250 260 265 273 273 271 274 281 286 285 293 296
250 341 258 253 256 277 263 269 271 224 265 250 247 261 276 294 182 195 189 197 199 198 199 199 200 199 195 193 197 198 202 202 189 188 201 223 237 250 260 269 268 268 274 278 281 283 282 282 283
114 256 243 232 260 253 253 239 281 234 205 238 256 262 201 146 180 193 189 193 199 197 199 197 199 202 198 195 198 201 201 196 194 199 211 222 236 251 261 262 263 268 272 275 281 283 284 283 280
201 212 270 248 228 262 270 263 265 278 254 239 257 265 122 162 181 184 181 188 194 195 195 197 200 204 200 198 200 200 199 200 200 200 211 222 234 245 251 255 262 269 274 280 286 288 283 281 278
197 215 220 273 270 284 240 265 255 250 239 239 253 261 246 188 192 193 193 192 194 193 196 198 204 204 202 199 198 197 196 197 198 202 209 221 232 243 250 261 268 273 277 279 281 279 278 277 277
161 204 293 272 215 280 268 259 255 168 199 228 229 219 235 221 212 208 206 199 199 196 200 202 204 206 204 200 195 194 192 191 192 198 205 217 228 239 245 255 265 271 274 276 279 279 279 279 280
229 110 179 214 275 266 279 281 269 265 235 222 231 236 258 218 208 212 212 203 204 207 205 205 206 205 203 198 195 191 188 189 192 195 203 211 220 231 246 254 260 267 271 275 281 282 282 282 281
185 222 222 287 240 258 278 273 74 111 148 177 215 228 249 214 207 217 205 208 210 210 205 208 207 203 201 197 193 188 184 186 190 196 205 211 218 226 238 249 258 265 271 278 279 279 282 282 282
265 232 217 221 226 231 251 273 70 212 252 148 155 200 210 212 225 234 211 206 203 209 208 208 205 202 201 195 191 187 180 183 188 197 201 208 217 228 238 247 258 265 271 275 277 280 282 283 282